FW5264 Weather Reports


time (UTC)temp
C
wind
direction
speed
KPH
gust
KPH
rain 1hr
cm
rain 24hr
cm
rain mn
cm
humidity
%
barometer
mb
20260507081340 11 247 0.0 0.0 0.00 0.41 0.00 89 1014.9
20260507080325 11 182 0.0 6.4 0.00 0.41 0.00 89 1015.0
20260507075424 11 218 0.0 1.6 0.00 0.41 0.00 89 1015.1
20260507074426 11 225 0.0 0.0 0.00 0.41 0.00 89 1015.1
20260507073426 11 197 0.0 3.2 0.00 0.41 0.00 89 1015.0
20260507072425 11 247 0.0 0.0 0.00 0.41 0.00 88 1015.0
20260507071424 11 292 0.0 0.0 0.00 0.41 0.00 89 1014.9
20260507070440 11 180 0.0 0.0 0.00 0.41 0.00 89 1015.3
20260507065427 11 247 0.0 3.2 0.00 0.41 0.00 88 1015.5
20260507064425 11 211 0.0 1.6 0.00 0.41 0.00 89 1015.5
20260507062427 12 247 0.0 0.0 0.00 0.41 0.00 88 1015.5
20260507060426 12 194 3.2 11.3 0.00 0.41 0.00 88 1015.3
20260507055425 12 178 0.0 3.2 0.00 0.41 0.00 87 1015.4
20260507054425 12 221 3.2 14.5 0.00 0.41 0.00 87 1015.8
20260507052525 12 229 0.0 1.6 0.00 0.41 0.00 88 1016.0
20260507051525 12 247 1.6 6.4 0.00 0.41 0.00 87 1015.9
20260507050542 12 220 0.0 4.8 0.00 0.41 0.00 88 1016.4
20260507045626 12 247 0.0 1.6 0.00 0.41 0.00 87 1016.5
20260507044725 12 207 3.2 8.0 0.00 0.41 0.00 87 1016.5
20260507043725 12 209 1.6 6.4 0.00 0.41 0.00 87 1016.8
20260507042726 12 212 0.0 3.2 0.00 0.41 0.00 87 1016.5
20260507041725 12 233 4.8 11.3 0.00 0.41 0.00 87 1016.6
20260507040727 12 224 3.2 8.0 0.00 0.41 0.00 86 1016.8
20260507034907 12 215 1.6 8.0 0.00 0.41 0.41 86 1016.9
20260507032910 12 217 6.4 11.3 0.00 0.41 0.41 86 1016.7
20260507032009 12 221 8.0 16.1 0.00 0.41 0.41 86 1017.1
20260507031025 12 224 6.4 11.3 0.00 0.41 0.41 86 1016.8
20260507030008 12 230 6.4 16.1 0.00 0.41 0.41 85 1016.7
20260507025011 12 228 8.0 14.5 0.00 0.41 0.41 85 1016.7
20260507024109 12 218 8.0 14.5 0.00 0.41 0.41 85 1017.1
20260507023109 12 218 3.2 6.4 0.00 0.41 0.41 85 1017.1
20260507023010 12 220 3.2 8.0 0.00 0.41 0.41 85 1017.3
20260507022011 12 220 4.8 9.7 0.00 0.41 0.41 84 1017.3
20260507020925 12 236 3.2 6.4 0.00 0.41 0.41 84 1017.5
20260507020011 12 213 6.4 12.9 0.00 0.41 0.41 84 1017.5
20260507015010 12 230 3.2 9.7 0.00 0.41 0.41 84 1017.7
20260507012208 12 234 4.8 12.9 0.03 0.41 0.41 83 1018.0
20260507011210 12 229 6.4 11.3 0.10 0.41 0.41 83 1018.1
20260507010210 12 218 1.6 4.8 0.15 0.41 0.41 81 1018.0
20260507005209 12 217 6.4 25.7 0.25 0.41 0.41 82 1017.8
20260507003309 12 230 3.2 9.7 0.30 0.41 0.41 80 1017.8
20260507002310 12 225 1.6 9.7 0.28 0.38 0.38 81 1017.8
20260507001310 12 222 1.6 11.3 0.23 0.30 0.30 80 1017.8
20260506235410 12 227 3.2 6.4 0.13 0.15 0.15 80 1017.8
20260506234325 12 220 1.6 11.3 0.13 0.15 0.15 80 1017.6
20260506233409 12 214 6.4 12.9 0.10 0.10 0.10 79 1017.5
20260506232424 12 211 4.8 14.5 0.10 0.10 0.10 78 1017.6
20260506231510 12 214 4.8 11.3 0.08 0.08 0.08 78 1017.9
20260506230510 12 203 4.8 8.0 0.05 0.05 0.05 78 1018.1
20260506224510 12 217 6.4 16.1 0.03 0.03 0.03 78 1018.3
20260506223609 12 209 4.8 11.3 0.00 0.00 0.00 77 1018.3
20260506221709 12 204 6.4 20.9 0.00 0.00 0.00 77 1018.5
20260506215727 12 207 3.2 16.1 0.00 0.00 0.00 78 1018.3
20260506214808 12 231 6.4 11.3 0.00 0.00 0.00 78 1018.5
20260506213808 12 201 4.8 12.9 0.00 0.00 0.00 77 1018.5
20260506212811 13 213 3.2 8.0 0.00 0.00 0.00 76 1018.7
20260506211909 13 220 8.0 19.3 0.00 0.00 0.00 77 1018.9
20260506210911 13 232 3.2 8.0 0.00 0.00 0.00 76 1018.6
20260506204911 13 208 3.2 6.4 0.00 0.00 0.00 77 1018.9
20260506204008 13 218 3.2 8.0 0.00 0.00 0.00 77 1018.9
20260506203010 13 214 1.6 6.4 0.00 0.00 0.00 76 1019.2
20260506201025 13 221 4.8 6.4 0.00 0.00 0.00 77 1019.2
20260506200109 13 215 6.4 16.1 0.00 0.00 0.00 76 1019.2
20260506194210 13 196 3.2 9.7 0.00 0.00 0.00 76 1019.6
20260506193309 13 214 4.8 11.3 0.00 0.00 0.00 75 1019.8
20260506192407 13 220 3.2 6.4 0.00 0.00 0.00 75 1019.9
20260506191410 13 207 3.2 6.4 0.00 0.00 0.00 76 1019.5
20260506190410 13 208 3.2 9.7 0.00 0.00 0.00 76 1019.6
20260506185409 13 216 1.6 4.8 0.00 0.00 0.00 76 1019.6
20260506183509 14 224 6.4 17.7 0.00 0.00 0.00 77 1020.0
20260506182509 14 194 8.0 16.1 0.00 0.00 0.00 77 1020.5
20260506181608 15 191 8.0 12.9 0.00 0.00 0.00 76 1020.7
20260506180610 15 199 11.3 16.1 0.00 0.00 0.00 76 1020.7
20260506174608 15 201 4.8 19.3 0.00 0.00 0.00 78 1021.0
20260506173707 16 194 8.0 16.1 0.00 0.00 0.00 77 1020.8
20260506172709 15 190 6.4 12.9 0.00 0.00 0.00 77 1020.9
20260506171725 15 193 3.2 11.3 0.00 0.00 0.00 78 1020.8
20260506170809 16 199 6.4 19.3 0.00 0.00 0.00 78 1021.1
20260506165824 15 196 8.0 19.3 0.00 0.00 0.00 77 1021.5
20260506164810 15 190 4.8 11.3 0.00 0.00 0.00 78 1021.5
20260506162910 15 193 6.4 11.3 0.00 0.00 0.00 79 1021.6
20260506162009 16 194 12.9 22.5 0.00 0.00 0.00 79 1021.8
20260506161008 16 191 8.0 24.1 0.00 0.00 0.00 79 1022.0
20260506160009 16 197 11.3 30.6 0.00 0.00 0.00 79 1022.0
20260506155009 15 195 9.7 25.7 0.00 0.00 0.00 80 1022.1
20260506154107 15 202 4.8 12.9 0.00 0.00 0.00 80 1022.1
20260506153111 15 198 8.0 24.1 0.00 0.00 0.00 79 1022.5
20260506152208 15 202 8.0 17.7 0.00 0.00 0.00 79 1022.4
20260506151210 15 191 6.4 12.9 0.00 0.00 0.00 80 1022.4
20260506145223 15 195 8.0 14.5 0.00 0.00 0.00 80 1022.1
20260506144308 15 197 6.4 19.3 0.00 0.00 0.00 81 1021.9
20260506144225 15 194 11.3 20.9 0.00 0.00 0.00 81 1021.9
20260506143209 15 190 1.6 6.4 0.00 0.00 0.00 82 1021.9
20260506142209 16 193 3.2 8.0 0.00 0.00 0.00 82 1022.2
20260506141209 16 199 3.2 9.7 0.00 0.00 0.00 82 1022.1
20260506140208 15 191 8.0 11.3 0.00 0.00 0.00 82 1022.3
20260506135211 16 197 9.7 19.3 0.00 0.00 0.00 83 1022.2
20260506134308 15 191 8.0 19.3 0.00 0.00 0.00 83 1022.2
20260506132408 16 218 3.2 12.9 0.00 0.00 0.00 84 1022.2
20260506131409 15 227 8.0 14.5 0.00 0.00 0.00 85 1022.2
20260506130410 15 214 3.2 6.4 0.00 0.00 0.00 84 1022.2
20260506125409 15 206 9.7 20.9 0.00 0.00 0.00 85 1022.2
20260506124410 15 215 12.9 24.1 0.00 0.00 0.00 84 1022.4
20260506123409 15 209 6.4 11.3 0.00 0.00 0.00 86 1022.2
20260506122409 15 214 8.0 14.5 0.00 0.00 0.00 86 1022.4
20260506121408 13 218 11.3 20.9 0.00 0.00 0.00 85 1022.4
20260506120507 13 216 6.4 14.5 0.00 0.00 0.00 86 1022.7
20260506115510 13 226 9.7 22.5 0.00 0.00 0.00 86 1022.7
20260506114510 14 219 8.0 17.7 0.00 0.00 0.00 85 1022.6
20260506112610 14 218 6.4 12.9 0.00 0.00 0.00 86 1022.4
20260506110609 13 221 4.8 11.3 0.00 0.00 0.00 86 1022.4
20260506104608 12 222 4.8 14.5 0.00 0.00 0.00 84 1022.3
20260506103608 12 220 1.6 6.4 0.00 0.00 0.00 85 1022.6
20260506102609 12 211 6.4 16.1 0.00 0.00 0.00 84 1022.6
20260506101707 11 219 4.8 11.3 0.00 0.00 0.00 84 1022.4
20260506100711 11 208 4.8 9.7 0.00 0.00 0.00 85 1022.4
20260506100625 11 215 6.4 11.3 0.00 0.00 0.00 84 1022.4
20260506095708 11 229 3.2 8.0 0.00 0.00 0.00 83 1022.5
20260506094706 11 206 4.8 17.7 0.00 0.00 0.00 83 1022.7
20260506092709 12 225 3.2 6.4 0.00 0.00 0.00 84 1022.4
20260506090809 11 221 4.8 6.4 0.00 0.00 0.00 84 1022.4
20260506085810 11 222 4.8 11.3 0.00 0.00 0.00 83 1022.5
20260506084907 12 213 3.2 6.4 0.00 0.00 0.00 83 1022.8
20260506083908 12 206 4.8 8.0 0.00 0.00 0.00 82 1022.8
20260506082909 11 214 6.4 14.5 0.00 0.00 0.00 82 1022.7
20260506082009 11 217 4.8 9.7 0.00 0.00 0.00 83 1022.7